Flag for U.S.A. Weather past 2 weeks in Pocatello, Idaho, U.S.A.

Now
46 °F

Clear.


Feels Like: 45 °F
Forecast: 47 / 69 °F
Wind: 3 mph from Northeast

Location: Pocatello Regional Airport

Current Time: May 28, 2015 at 4:18:05 AM

Latest Report: May 28, 2015 at 3:53 AM


Visibility: 10 mi

Pressure: 30.00 "Hg

Humidity: 96%

Dew point: 45 °F

Location of PocatelloLocation

Historic Weather in Pocatello — Graph

°F

Pocatello temperature yesterday

Maximum temperature yesterday: 69 °F (at 3:53 PM)
Minimum temperature yesterday: 45 °F (at 4:53 AM)
Average temperature yesterday: 56 °F

Past Weeks' High & Low Weather Summary

 TemperatureHumidityPressure
High72 °F (May 25, 5:53 PM)100% (May 16, 4:53 AM)30.09 "Hg (May 16, 4:53 AM)
Low40 °F (May 18, 5:53 AM)28% (May 13, 4:53 PM)29.60 "Hg (May 14, 5:53 PM)
Average54 °F76%29.87 "Hg
* Reported May 13 2:53 AM — May 28 2:53 AM, Pocatello, Weather by CustomWeather, © 2015

Note: Actual official high and low records may vary slightly from our data, if they occured in-between our weather recording intervals... More about our weather records

Advertising

Pocatello weather history for previous 24 hours

 ConditionsComfort  
Time TempWeatherWind HumidityBarometerVisibility
2:53 AM
Thu, May 28
47 °FPassing clouds.5 mph100%30.01 "Hg10 mi
1:53 AM49 °FPassing clouds.3 mph97%30.01 "Hg10 mi
12:53 AM50 °FPassing clouds.6 mph93%30.01 "Hg10 mi
11:53 PM
Wed, May 27
52 °FOvercast.12 mph83%30.00 "Hg10 mi
10:53 PM54 °FLight rain. Mostly cloudy.15 mph77%30.01 "Hg10 mi
10:01 PM55 °FThundershowers. Mostly cloudy.12 mph74%30.09 "Hg10 mi
8:53 PM56 °FPartly sunny.No wind77%29.98 "Hg10 mi
7:53 PM59 °FPartly sunny.10 mph67%29.96 "Hg10 mi
6:53 PM60 °FThunderstorms. Partly sunny.10 mph67%29.93 "Hg10 mi
5:53 PM59 °FPartly sunny.12 mph75%29.96 "Hg10 mi
5:00 PM57 °FThunderstorms. Cloudy.14 mph81%30.00 "Hg10 mi
3:53 PM69 °FPassing clouds.12 mph41%29.90 "Hg10 mi
2:53 PM68 °FPartly sunny.14 mph44%29.93 "Hg10 mi
1:53 PM65 °FPartly sunny.10 mph52%29.96 "Hg10 mi
12:53 PM65 °FPartly sunny.6 mph56%29.96 "Hg10 mi
11:53 AM64 °FBroken clouds.3 mph61%29.96 "Hg10 mi
10:53 AM60 °FBroken clouds.9 mph72%29.99 "Hg10 mi
9:53 AM58 °FPartly sunny.No wind72%29.98 "Hg10 mi
8:53 AM52 °FBroken clouds.No wind93%29.99 "Hg10 mi
7:53 AM50 °FPassing clouds.3 mph89%29.98 "Hg10 mi
6:53 AM47 °FPassing clouds.No wind100%29.98 "Hg10 mi
5:53 AM46 °FPassing clouds.7 mph100%29.97 "Hg10 mi
4:53 AM45 °FClear.8 mph100%29.96 "Hg10 mi
Weather by CustomWeather, © 2015

See weather overviewHow to use our weather pages